This is the latest recevied weather packets stored in our database for station/object HB9FHL-13. If no packets are shown the sender has not sent any weather packets the latest 10 day(s).
| Time | Temp. | Humidity | Pressure | Rain* | Wind** | Luminosity | Snow |
|---|---|---|---|---|---|---|---|
| 1778003521 | 11.67° C | - | 1006.1 hPa | 0 mm | - | - | - |
| 1778003221 | 11.67° C | - | 1010.9 hPa | 0 mm | - | - | - |
| 1778002919 | 11.11° C | - | 1001.6 hPa | 0 mm | - | - | - |
| 1778002619 | 12.78° C | - | 1011 hPa | 0 mm | - | - | - |
| 1778002318 | 12.78° C | - | 1006.1 hPa | 0 mm | - | - | - |
| 1778002018 | 12.22° C | - | 1007.6 hPa | 0 mm | - | - | - |
| 1778001717 | 11.67° C | - | 1006.4 hPa | 0 mm | - | - | - |
| 1778001417 | 12.22° C | - | 1007.8 hPa | 0 mm | - | - | - |
| 1778001116 | 12.78° C | - | 1008.5 hPa | 0 mm | - | - | - |
| 1778000816 | 13.33° C | - | 1018.1 hPa | 0 mm | - | - | - |
| 1778000513 | 12.22° C | - | 1007.5 hPa | 0 mm | - | - | - |
| 1778000213 | 12.78° C | - | 1001.5 hPa | 0 mm | - | - | - |
| 1777999912 | 13.33° C | - | 1010.5 hPa | 0 mm | - | - | - |
| 1777999612 | 13.33° C | - | 1013.3 hPa | 0 mm | - | - | - |
| 1777999311 | 13.33° C | - | 1009.8 hPa | 0 mm | - | - | - |
| 1777999011 | 14.44° C | - | 1005.1 hPa | 0 mm | - | - | - |
| 1777998710 | 13.33° C | - | 1003.5 hPa | 0 mm | - | - | - |
| 1777998410 | 12.78° C | - | 1010.7 hPa | 0 mm | - | - | - |
| 1777998109 | 13.89° C | - | 1011.1 hPa | 0 mm | - | - | - |
| 1777997808 | 12.78° C | - | 1001.9 hPa | 0 mm | - | - | - |
| 1777997508 | 13.33° C | - | 1002.6 hPa | 0 mm | - | - | - |
| 1777997207 | 13.89° C | - | 1003.5 hPa | 0 mm | - | - | - |
| 1777996907 | 14.44° C | - | 1007 hPa | 0 mm | - | - | - |
| 1777996607 | 14.44° C | - | 1008.9 hPa | 0 mm | - | - | - |
| 1777996306 | 15.56° C | - | 1012.2 hPa | 0 mm | - | - | - |
* Rain since midnight (hover to see other rain measurements)
** Current wind speed in m/s (hover to see current wind gust speed)